GW5654 Weather Reports


time (UTC)temp
F
wind
direction
speed
knots
gust
knots
rain 1hr
in
rain 24hr
in
rain mn
in
humidity
%
barometer
mb
20260506201554 46 22 3.5 11.3 0.08 0.92 0.92 93 1005.6
20260506200137 47 67 2.6 7.8 0.08 0.92 0.92 93 1005.2
20260506194604 48 16 1.7 7.0 0.08 0.96 0.92 93 1005.6
20260506193055 48 148 2.6 7.0 0.05 0.91 0.87 93 1005.6
20260506191557 49 352 1.7 7.8 0.07 0.88 0.84 93 1005.6
20260506190056 50 43 2.6 6.1 0.12 0.88 0.84 93 1005.2
20260506184556 50 97 0.9 3.5 0.14 0.88 0.84 93 1005.3
20260506183055 51 360 1.7 6.1 0.16 0.86 0.82 93 1005.3
20260506181557 51 226 1.7 3.5 0.13 0.81 0.77 93 1005.4
20260506180106 51 341 1.7 3.5 0.11 0.76 0.72 93 1005.5
20260506174558 51 352 0.0 1.7 0.14 0.74 0.70 93 1005.3
20260506173116 52 5 1.7 2.6 0.14 0.70 0.66 93 1005.4
20260506171601 52 350 0.9 6.1 0.16 0.68 0.64 93 1005.5
20260506170059 52 5 0.9 2.6 0.15 0.65 0.61 93 1005.6
20260506164556 53 30 0.9 3.5 0.13 0.60 0.56 93 1006.1
20260506163107 53 0 0.9 2.6 0.13 0.56 0.52 93 1006.2
20260506161558 54 298 0.9 1.7 0.13 0.52 0.48 93 1006.2
20260506160107 54 46 0.9 2.6 0.14 0.50 0.46 93 1006.4
20260506154558 54 47 0.0 1.7 0.15 0.47 0.43 93 1006.6
20260506153056 54 81 0.9 2.6 0.15 0.43 0.39 93 1006.7
20260506151555 54 360 0.0 3.5 0.14 0.39 0.35 93 1006.8
20260506144556 55 360 0.9 2.6 0.13 0.32 0.28 93 1007.1
20260506143056 55 351 0.0 3.5 0.10 0.28 0.24 92 1007.5
20260506141555 55 0 0.0 1.7 0.09 0.25 0.21 92 1007.6
20260506140056 56 203 0.0 1.7 0.08 0.22 0.18 93 1007.9
20260506134618 56 121 0.0 1.7 0.07 0.19 0.15 93 1007.4
20260506133056 56 0 0.0 1.7 0.08 0.18 0.14 93 1007.1
20260506131608 56 0 0.9 1.7 0.09 0.16 0.12 92 1007.4
20260506130055 56 40 0.0 1.7 0.08 0.14 0.10 92 1007.5
20260506124605 56 165 0.0 1.7 0.07 0.12 0.08 92 1007.7
20260506123101 56 70 0.0 1.7 0.05 0.10 0.06 91 1007.7
20260506121609 56 0 0.0 1.7 0.02 0.07 0.03 91 1007.9
20260506114556 55 352 0.9 1.7 0.01 0.05 0.01 90 1007.5
20260506113058 55 0 0.0 1.7 0.01 0.05 0.01 90 1007.3
20260506111612 55 83 0.0 1.7 0.01 0.05 0.01 89 1007.4
20260506110058 55 0 0.0 1.7 0.00 0.04 0.00 89 1007.4
20260506104559 55 0 0.9 3.5 0.00 0.12 0.00 89 1007.4
20260506103101 55 32 0.0 1.7 0.00 0.12 0.00 88 1007.2
20260506101557 54 0 0.0 1.7 0.00 0.12 0.00 87 1007.2
20260506100101 55 0 0.0 1.7 0.00 0.12 0.00 87 1007.2
20260506094555 55 0 0.0 1.7 0.00 0.12 0.00 87 1007.1
20260506093059 55 0 0.0 1.7 0.00 0.12 0.00 87 1007.0
20260506091555 55 0 0.0 1.7 0.00 0.12 0.00 86 1007.1
20260506090056 55 162 0.0 1.7 0.00 0.12 0.00 86 1007.3
20260506084601 55 0 0.0 1.7 0.00 0.12 0.00 85 1007.2
20260506083114 55 0 0.0 1.7 0.00 0.12 0.00 85 1007.3
20260506081554 55 218 0.0 1.7 0.00 0.12 0.00 85 1007.6
20260506073056 56 258 0.9 2.6 0.00 0.12 0.00 84 1008.0
20260506071556 56 306 0.9 3.5 0.00 0.12 0.00 84 1008.0
20260506070126 57 218 0.9 3.5 0.00 0.12 0.00 84 1008.0
20260506061556 58 202 0.9 4.3 0.00 0.12 0.00 86 1008.3
20260506050109 62 135 0.0 1.7 0.00 0.12 0.00 76 1008.2
20260506044602 62 246 0.0 1.7 0.00 0.12 0.00 77 1008.1
20260506043058 62 294 0.9 2.6 0.00 0.12 0.00 79 1008.3
20260506041603 62 293 0.9 1.7 0.00 0.12 0.00 78 1008.3
20260506034601 63 196 1.7 4.3 0.00 0.12 0.12 78 1008.1
20260506033059 63 270 0.9 4.3 0.00 0.12 0.12 78 1008.2
20260506031555 63 190 0.9 3.5 0.00 0.12 0.12 78 1008.1
20260506030059 63 155 0.9 2.6 0.00 0.12 0.12 78 1007.7
20260506024601 63 197 0.0 2.6 0.00 0.12 0.12 77 1007.8
20260506023057 63 196 0.9 3.5 0.00 0.12 0.12 76 1007.6
20260506021558 64 188 0.9 3.5 0.00 0.12 0.12 75 1007.7
20260506020108 64 144 0.9 2.6 0.00 0.12 0.12 75 1007.6
20260506014612 63 242 0.0 3.5 0.00 0.12 0.12 76 1007.4
20260506013057 63 150 0.9 2.6 0.00 0.12 0.12 76 1007.1
20260506011619 63 170 0.0 2.6 0.00 0.12 0.12 77 1006.9
20260506010056 63 227 0.0 3.5 0.00 0.12 0.12 77 1006.7
20260506004605 64 161 1.7 5.2 0.00 0.12 0.12 76 1006.9
20260506003058 63 154 1.7 5.2 0.00 0.12 0.12 75 1006.5
20260506001602 64 169 0.9 2.6 0.00 0.12 0.12 74 1005.9
20260506000120 64 207 0.9 3.5 0.00 0.12 0.12 73 1006.1
20260505234557 65 153 0.9 5.2 0.00 0.12 0.12 71 1005.9
20260505233100 65 200 2.6 7.0 0.00 0.12 0.12 69 1006.0
20260505231614 66 125 2.6 7.8 0.00 0.12 0.12 67 1005.4
20260505230107 66 305 6.1 11.3 0.00 0.12 0.12 67 1005.1
20260505224601 65 290 5.2 9.6 0.00 0.12 0.12 68 1005.0
20260505223103 66 263 6.1 13.9 0.00 0.12 0.12 66 1005.2
20260505221601 66 280 7.0 18.2 0.00 0.12 0.12 67 1005.5
20260505220058 67 270 9.6 18.2 0.00 0.12 0.12 62 1005.6
20260505214557 69 261 7.8 15.6 0.00 0.12 0.12 55 1005.2
20260505213057 68 323 6.1 13.0 0.00 0.12 0.12 57 1004.4
20260505211554 69 294 7.0 20.0 0.00 0.12 0.12 56 1004.6
20260505210057 72 269 6.1 17.4 0.00 0.12 0.12 55 1004.8
20260505204602 72 262 7.0 11.3 0.00 0.12 0.12 60 1004.0
20260505203103 71 269 3.5 9.6 0.04 0.12 0.12 63 1003.4